EW9067 Vienna VA US current weather conditions

sailwx.info

Wind from 235 at 0 knots gusting 2

Air temperature -4.4° C
Dewpoint -14.0° C

Last reported at 2020-Jan-21 05:03 UTC.
Time now 2020-Jan-21 06:01 UTC

Location: N 38°54' W 077°16'.
View on Google Maps.

See reports from other nearby stations

  
Tides and Currents Weather Stations Pressure Air Temp Water Temp Dewpoint Dewpoint Depression Visibility Wind Speed Wind Dir Waves Ship Positions
date/time (UTC)wind fromknots sea level pressurealtimeterstation pressurevisibilityair tempwater tempwave heightnotes
2020-Jan-21 05:03 235 0 gusting 2 -4.4
2020-Jan-21 04:53 231 1 gusting 4 -4.4
2020-Jan-21 04:48 219 0 gusting 1 -4.4
2020-Jan-21 04:43 258 0 gusting 3 -4.4
2020-Jan-21 04:38 258 0 gusting 3 -4.4
2020-Jan-21 04:33 309 0 gusting 1 -4.4
2020-Jan-21 04:28 331 0 gusting 3 -3.9
2020-Jan-21 04:23 331 0 gusting 3 -3.9
2020-Jan-21 04:18 269 -3.9
2020-Jan-21 04:13 288 0 gusting 2 -3.9
2020-Jan-21 04:08 288 0 gusting 2 -3.9
2020-Jan-21 04:03 317 0 gusting 1 -3.9
2020-Jan-21 03:58 258 1 gusting 3 -3.9
2020-Jan-21 03:53 258 1 gusting 3 -3.9
2020-Jan-21 03:48 282 0 gusting 2 -3.9
2020-Jan-21 03:43 317 0 gusting 2 -3.9
2020-Jan-21 03:38 317 0 gusting 2 -3.9
2020-Jan-21 03:33 261 0 gusting 2 -3.9
2020-Jan-21 03:28 321 -3.9
2020-Jan-21 03:23 321 -3.9
2020-Jan-21 03:18 324 0 gusting 2 -3.9
2020-Jan-21 03:13 327 0 gusting 2 -3.9
2020-Jan-21 03:08 334 0 gusting 2 -3.9
2020-Jan-21 03:03 324 0 gusting 1 -3.9
2020-Jan-21 02:58 337 0 gusting 2 -3.3
2020-Jan-21 02:53 337 0 gusting 2 -3.3
2020-Jan-21 02:48 262 0 gusting 2 -3.3
2020-Jan-21 02:43 307 -3.3
2020-Jan-21 02:38 307 0 gusting 1 -3.3
2020-Jan-21 02:33 307 0 gusting 1 -3.3
2020-Jan-21 02:28 319 0 gusting 2 -3.3
2020-Jan-21 02:23 319 0 gusting 2 -3.3
2020-Jan-21 02:18 299 0 gusting 2 -3.3
2020-Jan-21 02:13 265 1 gusting 2 -3.3
2020-Jan-21 02:08 269 -3.3
2020-Jan-21 02:03 268 -3.3
2020-Jan-21 01:58 268 -3.3
2020-Jan-21 01:53 268 -3.3
2020-Jan-21 01:48 290 0 gusting 1 -3.3
2020-Jan-21 01:43 290 0 gusting 1 -3.3
2020-Jan-21 01:38 290 0 gusting 1 -3.3
2020-Jan-21 01:33 290 -3.3
2020-Jan-21 01:28 290 -3.3
2020-Jan-21 01:23 290 -3.3
2020-Jan-21 01:18
2020-Jan-21 01:13 275 0 gusting 1 -2.8
2020-Jan-21 01:08 275 0 gusting 1 -2.8
2020-Jan-21 01:03 279 0 gusting 1 -2.8
2020-Jan-21 00:58 312 -2.8
2020-Jan-21 00:53 312 -2.8
2020-Jan-21 00:48 312 0 gusting 1 -2.8
2020-Jan-21 00:43 312 -2.8
2020-Jan-21 00:38 312 -2.8
2020-Jan-21 00:33 312 -2.2
2020-Jan-21 00:28 282 -2.2
2020-Jan-21 00:23 282 -2.2
2020-Jan-21 00:18 281 0 gusting 2 -2.2
2020-Jan-21 00:13 264 0 gusting 1 -2.2
2020-Jan-21 00:08 259 0 gusting 1 -2.2
2020-Jan-21 00:03 286 0 gusting 1 -2.2
2020-Jan-20 23:58 313 1 gusting 2 -1.7
2020-Jan-20 23:53 319 1 gusting 2 -1.7
2020-Jan-20 23:48 290 0 gusting 1 -1.7
2020-Jan-20 23:43 290 0 gusting 3 -1.7
2020-Jan-20 23:38 278 0 gusting 3 -1.7
2020-Jan-20 23:33 303 1 gusting 1 -1.7
2020-Jan-20 23:28 312 0 gusting 2 -1.7
2020-Jan-20 23:23 313 0 gusting 2 -1.7
2020-Jan-20 23:18 233 -1.7
2020-Jan-20 23:13 240 1 gusting 1 -1.7
2020-Jan-20 23:08 240 1 gusting 4 -1.7
2020-Jan-20 23:03 240 1 gusting 4 -1.7
2020-Jan-20 22:58 282 1 gusting 2 -1.7
2020-Jan-20 22:53 336 0 gusting 4 -1.7
2020-Jan-20 22:48 268 0 gusting 4 -1.7
2020-Jan-20 22:43 193 1 gusting 3 -1.1
2020-Jan-20 22:38
2020-Jan-20 22:33 331 3 gusting 4 -1.1
2020-Jan-20 22:28 331 3 gusting 4 -1.1
2020-Jan-20 22:23 285 0 gusting 3 -1.1
2020-Jan-20 22:18 321 1 gusting 6 -1.1
2020-Jan-20 22:13 264 1 gusting 6 -1.1
2020-Jan-20 22:08 245 4 gusting 5 -1.1
2020-Jan-20 22:03 326 1 gusting 5 -0.6
2020-Jan-20 21:58 323 2 gusting 5 -0.6
2020-Jan-20 21:53 220 1 gusting 3 -0.6
2020-Jan-20 21:48 220 1 gusting 4 -0.6
2020-Jan-20 21:42 306 1 gusting 4 -0.6
2020-Jan-20 21:37 295 1 gusting 4 -0.6
2020-Jan-20 21:32 295 1 gusting 4 -0.6
2020-Jan-20 21:27 003 2 gusting 4 -0.6
2020-Jan-20 21:22 278 2 gusting 7 -0.0
2020-Jan-20 21:17 278 2 gusting 7 -0.0
2020-Jan-20 21:12 233 0 gusting 3 -0.0
2020-Jan-20 21:07 237 1 gusting 7 -0.0
2020-Jan-20 21:02 237 1 gusting 7 -0.0
2020-Jan-20 20:57 154 1 gusting 4 -0.0
2020-Jan-20 20:52 182 1 gusting 6 -0.0
2020-Jan-20 20:47 182 1 gusting 7 -0.0
2020-Jan-20 20:42 234 3 gusting 7 -0.0
2020-Jan-20 20:37
2020-Jan-20 20:32
2020-Jan-20 20:27 0.6
2020-Jan-20 20:22 0.6
2020-Jan-20 20:17 293 2 gusting 3 0.6
2020-Jan-20 20:12
2020-Jan-20 20:07
2020-Jan-20 20:02 268 3 gusting 7 0.6
2020-Jan-20 19:57 268 3 gusting 7 0.6
2020-Jan-20 19:52 274 2 gusting 5 0.6
2020-Jan-20 19:47 266 2 gusting 4 0.6
2020-Jan-20 19:42 266 2 gusting 6 0.6
2020-Jan-20 19:37 310 2 gusting 6 0.6
2020-Jan-20 19:32
2020-Jan-20 19:27
2020-Jan-20 19:22 252 5 gusting 9 -0.0
2020-Jan-20 19:17 252 5 gusting 9 -0.0
2020-Jan-20 19:12 231 3 gusting 7 -0.0
2020-Jan-20 19:07 252 4 gusting 8 -0.0
2020-Jan-20 19:02 252 4 gusting 8 -0.0
2020-Jan-20 18:57 231 4 gusting 8 -0.0
2020-Jan-20 18:52 196 3 gusting 9 -0.0
2020-Jan-20 18:47 196 3 gusting 9 -0.0
2020-Jan-20 18:42 183 3 gusting 7 -0.0
2020-Jan-20 18:37 192 3 gusting 10 -0.0
2020-Jan-20 18:32 192 3 gusting 10 -0.0
2020-Jan-20 18:27 314 1 gusting 5 -0.0
2020-Jan-20 18:22 299 4 gusting 7 -0.6
2020-Jan-20 18:17 299 4 gusting 7 -0.6
2020-Jan-20 18:12 265 1 gusting 6 -0.6
2020-Jan-20 18:07 336 4 gusting 11 -0.6
2020-Jan-20 18:02 336 4 gusting 11 -0.6
2020-Jan-20 17:57 217 3 gusting 9 -0.6
2020-Jan-20 17:52 258 2 gusting 4 -0.6
2020-Jan-20 17:47 258 2 gusting 6 -0.6
2020-Jan-20 17:42 344 3 gusting 6 -1.1
2020-Jan-20 17:37
2020-Jan-20 17:32 355 5 gusting 8 -1.1
2020-Jan-20 17:27 355 5 gusting 8 -1.1
2020-Jan-20 17:22 327 3 gusting 7 -1.1
2020-Jan-20 17:17 334 2 gusting 5 -1.7
2020-Jan-20 17:12 334 2 gusting 6 -1.7
2020-Jan-20 17:07 355 3 gusting 6 -1.7
2020-Jan-20 17:02 293 3 gusting 8 -1.7
2020-Jan-20 16:57 293 3 gusting 8 -1.7
2020-Jan-20 16:52 010 2 gusting 8 -1.7
2020-Jan-20 16:47 290 0 gusting 2 -1.7
2020-Jan-20 16:42 290 0 gusting 6 -1.7
2020-Jan-20 16:37 -2.2
2020-Jan-20 16:32
2020-Jan-20 16:27
2020-Jan-20 16:22 345 1 gusting 3 -2.2
2020-Jan-20 16:17 345 1 gusting 7 -2.2
2020-Jan-20 16:12 340 2 gusting 7 -2.2
2020-Jan-20 16:07 193 2 gusting 7 -2.8
2020-Jan-20 16:02 193 2 gusting 7 -2.8
2020-Jan-20 15:59 227 2 gusting 6 -2.8
2020-Jan-20 15:52 -3.3
2020-Jan-20 15:47 -3.3
2020-Jan-20 15:42 264 2 gusting 10 -3.3
2020-Jan-20 15:37 341 3 gusting 6 -3.3
2020-Jan-20 15:31 341 3 gusting 10 -3.3
2020-Jan-20 15:26 354 3 gusting 10 -3.3
2020-Jan-20 15:21 204 3 gusting 7 -3.3
2020-Jan-20 15:17 265 3 gusting 8 -3.3
2020-Jan-20 15:11 -3.9
2020-Jan-20 15:06 162 4 gusting 8 -3.9
2020-Jan-20 15:01 -3.9
2020-Jan-20 14:56 257 3 gusting 5 -3.9
2020-Jan-20 14:51 271 2 gusting 5 -4.4
2020-Jan-20 14:46 345 1 gusting 5 -4.4
2020-Jan-20 14:44
2020-Jan-20 14:36
2020-Jan-20 14:31 207 3 gusting 7 -4.4
2020-Jan-20 14:26 207 3 gusting 12 -4.4
2020-Jan-20 14:21 282 6 gusting 12 -4.4
2020-Jan-20 14:16 358 3 gusting 8 -5.0
2020-Jan-20 14:11 358 3 gusting 8 -5.0
2020-Jan-20 14:06 314 2 gusting 6 -5.0
2020-Jan-20 14:01 262 1 gusting 3 -5.0
2020-Jan-20 13:59 262 1 gusting 5 -5.0
2020-Jan-20 13:54 296 2 gusting 5 -5.0
2020-Jan-20 13:46 254 2 gusting 5 -5.6
2020-Jan-20 13:41 254 2 gusting 7 -5.6
2020-Jan-20 13:39 255 1 gusting 7 -5.6
2020-Jan-20 13:31 312 4 gusting 5 -5.6
2020-Jan-20 13:26 116 2 gusting 7 -5.6
2020-Jan-20 13:21 248 3 gusting 7 -5.6
2020-Jan-20 13:16
2020-Jan-20 13:11 240 2 gusting 4 -5.6
2020-Jan-20 13:06 240 2 gusting 5 -5.6
2020-Jan-20 13:01 343 2 gusting 5 -5.6
2020-Jan-20 12:59 350 1 gusting 2 -5.6
2020-Jan-20 12:54 350 1 gusting 4 -5.6
2020-Jan-20 12:46 193 0 gusting 4 -5.6
2020-Jan-20 12:41 251 1 gusting 3 -5.6
2020-Jan-20 12:36 251 1 gusting 3 -5.6
2020-Jan-20 12:34 288 0 gusting 2 -5.6
2020-Jan-20 12:26 268 1 gusting 1 -5.6
2020-Jan-20 12:21 248 1 gusting 4 -5.6
2020-Jan-20 12:16 217 2 gusting 4 -5.6
2020-Jan-20 12:11 234 3 gusting 4 -5.6
2020-Jan-20 12:06 264 2 gusting 4 -5.6
2020-Jan-20 12:01 268 1 gusting 2 -5.6
2020-Jan-20 11:56 248 2 gusting 5 -5.6
2020-Jan-20 11:51 248 2 gusting 5 -5.6
2020-Jan-20 11:46 027 1 gusting 3 -5.6
2020-Jan-20 11:41
2020-Jan-20 11:36
2020-Jan-20 11:31 288 3 gusting 6 -5.6
2020-Jan-20 11:26 288 3 gusting 6 -5.6
2020-Jan-20 11:21 207 0 gusting 2 -5.6
2020-Jan-20 11:16 358 2 gusting 5 -5.6
2020-Jan-20 11:13 358 2 gusting 6 -5.6
2020-Jan-20 11:06 202 2 gusting 6 -5.6
2020-Jan-20 11:01 262 2 gusting 5 -5.6
2020-Jan-20 10:56 262 2 gusting 10 -5.6
2020-Jan-20 10:51 221 3 gusting 10 -5.6
2020-Jan-20 10:46 351 1 gusting 5 -5.6
2020-Jan-20 10:41 351 1 gusting 7 -5.6
2020-Jan-20 10:36 228 2 gusting 7 -5.6
2020-Jan-20 10:31 351 2 gusting 4 -5.6
2020-Jan-20 10:26 351 2 gusting 4 -5.6
2020-Jan-20 10:21 320 2 gusting 4 -5.6
2020-Jan-20 10:16 276 3 gusting 7 -5.6
2020-Jan-20 10:11 276 3 gusting 7 -5.6
2020-Jan-20 10:06 234 1 gusting 3 -5.6
2020-Jan-20 10:01 238 2 gusting 8 -5.0
2020-Jan-20 09:58 238 2 gusting 8 -5.0
2020-Jan-20 09:51 340 1 gusting 4 -5.0
2020-Jan-20 09:46 -5.0
2020-Jan-20 09:41 -5.0
2020-Jan-20 09:36 340 2 gusting 5 -5.0
2020-Jan-20 09:31 288 1 gusting 4 -5.0
2020-Jan-20 09:26 288 1 gusting 11 -5.0
2020-Jan-20 09:21 344 3 gusting 11 -5.0
2020-Jan-20 09:16 330 2 gusting 4 -5.0
2020-Jan-20 09:11 330 2 gusting 5 -5.0
2020-Jan-20 09:06 -5.0
2020-Jan-20 09:01 -5.0
2020-Jan-20 08:58 -5.0
2020-Jan-20 08:51 323 2 gusting 7 -5.0
2020-Jan-20 08:46
2020-Jan-20 08:41
2020-Jan-20 08:36
2020-Jan-20 08:31 240 2 gusting 5 -5.0
2020-Jan-20 08:25 240 2 gusting 7 -5.0
2020-Jan-20 08:20 293 2 gusting 7 -5.0
2020-Jan-20 08:15 302 2 gusting 4 -4.4
2020-Jan-20 08:10 313 1 gusting 10 -4.4
2020-Jan-20 08:05 271 3 gusting 10 -4.4
2020-Jan-20 08:03 286 3 gusting 7 -5.0
2020-Jan-20 07:55 286 3 gusting 8 -5.0
2020-Jan-20 07:50 245 4 gusting 8 -5.0
2020-Jan-20 07:45 243 1 gusting 3 -5.0
2020-Jan-20 07:40 243 1 gusting 9 -5.0
2020-Jan-20 07:35 235 2 gusting 9 -4.4
2020-Jan-20 07:33 336 4 gusting 6 -4.4
2020-Jan-20 07:25 336 4 gusting 9 -4.4
2020-Jan-20 07:20 016 4 gusting 9 -4.4
2020-Jan-20 07:15 300 3 gusting 6 -4.4
2020-Jan-20 07:10 300 3 gusting 6 -4.4
2020-Jan-20 07:05 017 3 gusting 6 -4.4
2020-Jan-20 07:00 228 4 gusting 8 -4.4
2020-Jan-20 06:55 228 4 gusting 8 -4.4
2020-Jan-20 06:50 -4.4
2020-Jan-20 06:45 -4.4
2020-Jan-20 06:40 220 4 gusting 14 -4.4
2020-Jan-20 06:35 279 2 gusting 10 -4.4
2020-Jan-20 06:33 228 2 gusting 10 -4.4
2020-Jan-20 06:25 202 3 gusting 7 -4.4
2020-Jan-20 06:20 282 2 gusting 3 -4.4
2020-Jan-20 06:15 282 2 gusting 7 -4.4
2020-Jan-20 06:10 299 3 gusting 7 -4.4
2020-Jan-20 06:05 266 2 gusting 6 -4.4
2020-Jan-20 06:00 266 2 gusting 8 -4.4
2020-Jan-20 05:55 353 4 gusting 8 -4.4
2020-Jan-20 05:50
2020-Jan-20 05:45 179 4 gusting 7 -3.9
2020-Jan-20 05:40 179 4 gusting 7 -3.9
2020-Jan-20 05:35 213 2 gusting 6 -3.9
2020-Jan-20 05:30 223 4 gusting 4 -3.9
2020-Jan-20 05:25
2020-Jan-20 05:20 286 2 gusting 4 -3.9
2020-Jan-20 05:15 286 2 gusting 5 -3.9
2020-Jan-20 05:10 -3.9
2020-Jan-20 05:05 261 1 gusting 2 -3.9
2020-Jan-20 05:03 261 1 gusting 4 -3.9
2020-Jan-20 04:55 212 1 gusting 4 -3.9
2020-Jan-20 04:50 347 0 gusting 2 -3.9
2020-Jan-20 04:45 347 0 gusting 6 -3.9
2020-Jan-20 04:40 327 2 gusting 6 -3.9
2020-Jan-20 04:37 226 4 gusting 6 -3.3
2020-Jan-20 04:30 226 4 gusting 6 -3.3
2020-Jan-20 04:25 324 1 gusting 5 -3.3
2020-Jan-20 04:20 195 2 gusting 5 -3.3
2020-Jan-20 04:15 195 2 gusting 5 -3.3
2020-Jan-20 04:10 206 0 gusting 4 -3.3
2020-Jan-20 04:05 275 0 gusting 5 -3.3
2020-Jan-20 04:00 275 0 gusting 7 -3.3
2020-Jan-20 03:55 259 3 gusting 7 -3.3
2020-Jan-20 03:50 -3.3
2020-Jan-20 03:45 -3.3
2020-Jan-20 03:40 204 4 gusting 8 -3.3
2020-Jan-20 03:35 245 5 gusting 11 -2.8
2020-Jan-20 03:30 245 5 gusting 11 -2.8
2020-Jan-20 03:25 324 3 gusting 6 -2.8
2020-Jan-20 03:20 -2.8
2020-Jan-20 03:15 -2.8
2020-Jan-20 03:10 316 2 gusting 8 -2.8
2020-Jan-20 03:05 173 3 gusting 9 -2.2
2020-Jan-20 03:00 173 3 gusting 9 -2.2
2020-Jan-20 02:55 202 3 gusting 7 -2.2
2020-Jan-20 02:50
2020-Jan-20 02:45 196 2 gusting 5 -2.2
2020-Jan-20 02:40 196 2 gusting 5 -2.2
2020-Jan-20 02:35 345 1 gusting 4 -2.2
2020-Jan-20 02:30
2020-Jan-20 02:25
2020-Jan-20 02:20 216 3 gusting 6 -1.7
2020-Jan-20 02:15 216 3 gusting 6 -1.7
2020-Jan-20 02:10 207 2 gusting 6 -1.7
2020-Jan-20 02:05 265 2 gusting 5 -1.7
2020-Jan-20 02:00 265 2 gusting 5 -1.7
2020-Jan-20 01:55 209 2 gusting 4 -1.7
2020-Jan-20 01:50
2020-Jan-20 01:45 032 3 gusting 5 -1.1
2020-Jan-20 01:40 032 3 gusting 5 -1.1
2020-Jan-20 01:35 -1.1
2020-Jan-20 01:30 300 3 gusting 7 -1.1
2020-Jan-20 01:25 -1.1
2020-Jan-20 01:19 275 4 gusting 4
2020-Jan-20 01:14
2020-Jan-20 01:09 209 4 gusting 7 -1.1
2020-Jan-20 01:04 209 4 gusting 8 -1.1
2020-Jan-20 00:59 262 3 gusting 8 -1.1
2020-Jan-20 00:54 219 3 gusting 10 -0.6
2020-Jan-20 00:49 219 3 gusting 10 -0.6
2020-Jan-20 00:44 166 4 gusting 8 -0.6
2020-Jan-20 00:39 323 2 gusting 5 -0.6
2020-Jan-20 00:34 323 2 gusting 10 -0.6
2020-Jan-20 00:29 228 4 gusting 10 -0.6
2020-Jan-20 00:24 283 1 gusting 3 -0.6
2020-Jan-20 00:19 283 1 gusting 6 -0.6
2020-Jan-20 00:14 329 2 gusting 6 -0.6
2020-Jan-20 00:09 259 1 gusting 5 -0.6
2020-Jan-20 00:04 259 1 gusting 6 -0.6
2020-Jan-19 23:59 272 3 gusting 6 -0.6
2020-Jan-19 23:54 300 1 gusting 3 -0.6
2020-Jan-19 23:49 300 1 gusting 4 -0.6
2020-Jan-19 23:44 282 1 gusting 4 -0.0
2020-Jan-19 23:39
2020-Jan-19 23:34 259 3 gusting 8 -0.0
2020-Jan-19 23:29 259 3 gusting 8 -0.0
2020-Jan-19 23:24 276 2 gusting 6 -0.0
2020-Jan-19 23:19
2020-Jan-19 23:14 219 3 gusting 9 -0.0
2020-Jan-19 23:09 219 3 gusting 9 -0.0
2020-Jan-19 23:04 285 3 gusting 6 -0.0
2020-Jan-19 22:59 338 1 gusting 7 -0.0
2020-Jan-19 22:54 316 2 gusting 7 -0.0
2020-Jan-19 22:49
2020-Jan-19 22:44 262 3 gusting 10 0.6
2020-Jan-19 22:39 262 3 gusting 10 0.6
2020-Jan-19 22:34 258 3 gusting 4
2020-Jan-19 22:29 034 3 gusting 6 0.6
2020-Jan-19 22:24 034 3 gusting 6 0.6
2020-Jan-19 22:19 200 2 gusting 5 0.6
2020-Jan-19 22:14
2020-Jan-19 22:09
2020-Jan-19 22:04 257 2 gusting 4 0.6
2020-Jan-19 21:59 257 2 gusting 4 0.6
2020-Jan-19 21:54 252 2 gusting 4 1.1
2020-Jan-19 21:49 281 1 gusting 3 1.1
2020-Jan-19 21:44 255 1 gusting 5 1.1
2020-Jan-19 21:39 193 2 gusting 5 1.1
2020-Jan-19 21:34 161 3 gusting 8 1.1
2020-Jan-19 21:29 107 4 gusting 8 1.1
2020-Jan-19 21:24 276 4 gusting 8 1.7
2020-Jan-19 21:19 276 3 gusting 10 1.7
2020-Jan-19 21:14 186 3 gusting 10 1.7
2020-Jan-19 21:09 231 3 gusting 7 1.7
2020-Jan-19 21:04 244 4 gusting 12 2.2
2020-Jan-19 20:59 244 4 gusting 12 2.2
2020-Jan-19 20:53 298 4 gusting 8 2.2
2020-Jan-19 20:48 245 1 gusting 8 2.8
2020-Jan-19 20:43 245 1 gusting 11 2.8
2020-Jan-19 20:38 281 5 gusting 11 2.8
2020-Jan-19 20:33 206 5 gusting 11 2.8
2020-Jan-19 20:28 206 5 gusting 11 2.8
2020-Jan-19 20:23 243 4 gusting 10 2.8
2020-Jan-19 20:18
2020-Jan-19 20:13 190 5 gusting 13 2.8
2020-Jan-19 20:08 190 5 gusting 13 2.8
2020-Jan-19 20:03 180 4 gusting 9 2.8
2020-Jan-19 19:58
2020-Jan-19 19:53
2020-Jan-19 19:48 279 5 gusting 11 3.3
2020-Jan-19 19:43 279 5 gusting 11 3.3
2020-Jan-19 19:38 285 5 gusting 11 3.3
2020-Jan-19 19:33 319 5 gusting 13 2.2
2020-Jan-19 19:28 278 6 gusting 13 2.2
2020-Jan-19 19:23 358 6 gusting 13 3.3
2020-Jan-19 19:18 358 6 gusting 17 3.3
2020-Jan-19 19:13 3.3
2020-Jan-19 19:08
2020-Jan-19 19:03 185 7 gusting 11 3.9
2020-Jan-19 18:58 185 7 gusting 11 3.9
2020-Jan-19 18:53 298 5 gusting 11 3.9
2020-Jan-19 18:48 200 5 gusting 13 3.9
2020-Jan-19 18:43 219 6 gusting 13 3.9
2020-Jan-19 18:38 321 4 gusting 11 3.9
2020-Jan-19 18:33 271 5 gusting 12 3.3
2020-Jan-19 18:28 279 5 gusting 12 3.3
2020-Jan-19 18:23 268 5 gusting 12 3.3
2020-Jan-19 18:18 272 4 gusting 12 5.0
2020-Jan-19 18:13 272 4 gusting 12 5.0
2020-Jan-19 18:08 013 4 gusting 10 4.4
2020-Jan-19 18:03 323 6 gusting 11 4.4
2020-Jan-19 17:58 323 6 gusting 14 4.4
2020-Jan-19 17:53 274 6 gusting 16 4.4
2020-Jan-19 17:48 173 6 gusting 16 4.4
2020-Jan-19 17:43 276 4 gusting 13 5.0
2020-Jan-19 17:38 345 5 gusting 14 5.0
2020-Jan-19 17:33 244 6 gusting 14 5.0
2020-Jan-19 17:28 087 3 gusting 9 5.0
2020-Jan-19 17:23 233 3 gusting 9 5.0
2020-Jan-19 17:18
2020-Jan-19 17:13 221 6 gusting 18 5.0
2020-Jan-19 17:08 196 6 gusting 18 5.0
2020-Jan-19 17:03 265 3 gusting 5 5.6
2020-Jan-19 16:58 348 5 gusting 10 5.0
2020-Jan-19 16:53 348 5 gusting 10 5.0
2020-Jan-19 16:48 202 2 gusting 5 5.0
2020-Jan-19 16:43 255 2 gusting 8 5.0
2020-Jan-19 16:38 255 2 gusting 8 5.0
2020-Jan-19 16:33 195 3 gusting 8 5.0
2020-Jan-19 16:28 282 1 gusting 8 5.0
2020-Jan-19 16:23 282 1 gusting 8 5.0
2020-Jan-19 16:18 5.0
2020-Jan-19 16:13 327 4 gusting 9 5.0
2020-Jan-19 16:08 327 4 gusting 11 5.0
2020-Jan-19 16:03 233 6 gusting 11 5.0
2020-Jan-19 15:58
2020-Jan-19 15:53 240 3 gusting 9 5.0
2020-Jan-19 15:48 240 3 gusting 10 5.0
2020-Jan-19 15:43 259 4 gusting 10 5.0
2020-Jan-19 15:38 185 6 gusting 10 5.0
2020-Jan-19 15:33 185 6 gusting 10 5.0
2020-Jan-19 15:28 276 4 gusting 10 5.0
2020-Jan-19 15:23
2020-Jan-19 15:18 227 4 gusting 9 4.4
2020-Jan-19 15:13 227 4 gusting 9 4.4
2020-Jan-19 15:08 221 2 gusting 7 4.4
2020-Jan-19 15:03 214 4 gusting 10 4.4
2020-Jan-19 14:58 159 3 gusting 10 4.4
2020-Jan-19 14:53 4.4
2020-Jan-19 14:48 347 2 gusting 11 4.4
2020-Jan-19 14:43 338 5 gusting 11 4.4
2020-Jan-19 14:38 240 2 gusting 8 4.4
2020-Jan-19 14:33 240 2 gusting 12 4.4
2020-Jan-19 14:28 344 4 gusting 12 4.4
2020-Jan-19 14:23 3.9
2020-Jan-19 14:18 3.9
2020-Jan-19 14:13 295 3 gusting 7 3.9
2020-Jan-19 14:08
2020-Jan-19 14:03 250 2 gusting 4 3.9
2020-Jan-19 13:58 250 2 gusting 4 3.9
2020-Jan-19 13:53 217 2 gusting 3 3.9
2020-Jan-19 13:43 251 2 gusting 7 3.9
2020-Jan-19 13:38 251 2 gusting 8 3.9
2020-Jan-19 13:33 244 3 gusting 8 3.9
2020-Jan-19 13:28 296 3 gusting 6 3.3
2020-Jan-19 13:23 296 3 gusting 8 3.3
2020-Jan-19 13:18 282 2 gusting 8 3.3
2020-Jan-19 13:13 275 2 gusting 5 2.8
2020-Jan-19 13:08 275 2 gusting 5 2.8
2020-Jan-19 13:03 216 2 gusting 4 2.8
2020-Jan-19 12:58 180 0 gusting 1 2.8
2020-Jan-19 12:53 180 0 gusting 2 2.8
2020-Jan-19 12:48 279 0 gusting 2 2.8
2020-Jan-19 12:43
2020-Jan-19 12:38 227 0 gusting 2 2.8
2020-Jan-19 12:33 227 0 gusting 2 2.8
2020-Jan-19 12:28 227 0 gusting 1 2.8
2020-Jan-19 12:23 210 3.3
2020-Jan-19 12:18 210 3.3
2020-Jan-19 12:12 210 3.3
2020-Jan-19 12:07
2020-Jan-19 12:02 210 3.9
2020-Jan-19 11:57 210 3.9
2020-Jan-19 11:52 210 3.9
2020-Jan-19 11:47 210 3.9
2020-Jan-19 11:42 210 3.9
2020-Jan-19 11:37 210 3.9
2020-Jan-19 11:32 206 4.4
2020-Jan-19 11:27 206 4.4
2020-Jan-19 11:22 206 4.4
2020-Jan-19 11:17 192 4.4
2020-Jan-19 11:12 192 4.4
2020-Jan-19 11:07 192 4.4
2020-Jan-19 11:02 192 5.0
2020-Jan-19 10:57 192 5.0
2020-Jan-19 10:52 192 5.0
2020-Jan-19 10:47 305 5.0
2020-Jan-19 10:42 305 5.0
2020-Jan-19 10:37 305 5.0
2020-Jan-19 10:32 305 5.0
2020-Jan-19 10:27 305 5.0
2020-Jan-19 10:22 305
2020-Jan-19 10:17 305 5.0
2020-Jan-19 10:12 305 5.0
2020-Jan-19 10:07 305 5.0
2020-Jan-19 10:02
2020-Jan-19 09:57 305 5.0
2020-Jan-19 09:52 305 5.0
2020-Jan-19 09:47 305
2020-Jan-19 09:42
2020-Jan-19 09:37 245 5.0
2020-Jan-19 09:32 245 5.0
2020-Jan-19 09:27 245 5.0
2020-Jan-19 09:22 245 5.0
2020-Jan-19 09:17 245 5.0
2020-Jan-19 09:12 245 5.0
2020-Jan-19 09:07 245 5.6
2020-Jan-19 09:02 245 5.6
2020-Jan-19 08:57 245 5.6
2020-Jan-19 08:52 245 5.6
2020-Jan-19 08:47 245 5.6
2020-Jan-19 08:42 245 5.6
2020-Jan-19 08:37 245 5.6
2020-Jan-19 08:32 245 5.6
2020-Jan-19 08:27 245 5.6
2020-Jan-19 08:22 245 0 gusting 1 5.6
2020-Jan-19 08:17 245 0 gusting 2 5.6
2020-Jan-19 08:12 234 1 gusting 2 5.6
2020-Jan-19 08:07 285 5.6
2020-Jan-19 08:02 285 5.6
2020-Jan-19 07:57 269 5.6
2020-Jan-19 07:52 288 5.6
2020-Jan-19 07:47 288 5.6
2020-Jan-19 07:42 238 0 gusting 1 5.6
2020-Jan-19 07:37
2020-Jan-19 07:32 241 0 gusting 3 5.6
2020-Jan-19 07:27 241 0 gusting 3 5.6
2020-Jan-19 07:22 165 1 gusting 2 5.6
2020-Jan-19 07:17 155 0 gusting 2 5.6
2020-Jan-19 07:12 155 0 gusting 2 5.6
2020-Jan-19 07:07 209 0 gusting 0 5.6
2020-Jan-19 07:02 037 0 gusting 4 5.0
2020-Jan-19 06:57 037 0 gusting 4 5.0
2020-Jan-19 06:52 042 0 gusting 2 5.0
2020-Jan-19 06:47 100 1 gusting 5 5.0
2020-Jan-19 06:42 100 1 gusting 5 5.0
2020-Jan-19 06:37 128 5.0
2020-Jan-19 06:32 5.0
2020-Jan-19 06:27 5.0
2020-Jan-19 06:22 114 0 gusting 3 5.0
2020-Jan-19 06:17 021 0 gusting 3 5.0
2020-Jan-19 06:12 021 0 gusting 3 5.0
2020-Jan-19 06:07 233 0 gusting 2 5.0
2020-Jan-19 06:02 196 0 gusting 2 4.4